KL1SF-7 Weather Reports


Display with metric or nautical units.
time (UTC)temp
F
wind
direction
speed
MPH
gust
MPH
rain 1hr
in
rain 24hr
in
rain mn
in
humidity
%
barometer
mb
20180122102358 6 325 0.0 0.0 0.00 0.03 0.00 77 1022.2
20180122101430 6 325 0.0 0.0 0.00 0.03 0.00 77 1022.2
20180122100350 7 326 0.0 0.0 0.00 0.03 0.00 77 1022.2
20180122095412 7 325 0.0 0.0 0.00 0.03 0.00 77 1022.2
20180122094422 8 325 0.0 0.0 0.00 0.03 0.00 80 1022.2
20180122091359 8 325 0.0 0.0 0.00 0.03 0.00 76 1022.0
20180122090336 8 325 0.0 0.0 0.00 0.03 0.00 76 1022.0
20180122085348 9 325 0.0 0.0 0.00 0.03 0.00 75 1022.0
20180122084340 9 325 0.0 0.0 0.00 0.03 0.00 76 1022.0
20180122083346 9 325 0.0 0.0 0.00 0.03 0.00 75 1022.0
20180122082338 10 325 0.0 0.0 0.00 0.03 0.00 73 1022.2
20180122081348 11 325 0.0 0.0 0.00 0.03 0.00 69 1022.2
20180122080353 14 325 0.0 0.0 0.00 0.03 0.00 68 1022.0
20180122075341 16 325 0.0 0.0 0.00 0.03 0.00 69 1022.0
20180122074334 16 325 0.0 0.0 0.00 0.03 0.00 71 1022.0
20180122073340 15 326 0.0 0.0 0.00 0.03 0.00 71 1022.1
20180122072352 16 325 0.0 0.0 0.00 0.03 0.00 67 1022.0
20180122071337 16 325 0.0 0.0 0.00 0.03 0.00 68 1022.0
20180122070349 17 325 0.0 0.0 0.00 0.03 0.00 68 1022.3
20180122063430 18 325 0.0 0.0 0.00 0.03 0.03 69 1022.2
20180122062422 19 325 0.0 0.0 0.00 0.03 0.03 67 1022.4
20180122061345 20 325 0.0 0.0 0.00 0.03 0.03 63 1022.4
20180122060429 21 326 0.0 0.0 0.00 0.03 0.03 61 1022.2
20180122055416 22 326 0.0 0.0 0.00 0.03 0.03 61 1022.2
20180122054402 22 326 0.0 2.0 0.00 0.03 0.03 62 1022.2
20180122053417 23 326 0.0 2.0 0.00 0.03 0.03 63 1021.6
20180122052405 23 326 0.0 1.0 0.00 0.03 0.03 63 1021.3
20180122051354 23 325 0.0 0.0 0.00 0.03 0.03 64 1021.3
20180122050417 23 325 0.0 0.0 0.00 0.03 0.03 63 1021.6
20180122045400 23 325 0.0 2.0 0.00 0.03 0.03 63 1021.7
20180122044430 22 325 0.0 2.0 0.00 0.03 0.03 64 1021.7
20180122043359 23 325 0.0 3.0 0.00 0.03 0.03 64 1021.6
20180122042403 23 287 0.0 0.0 0.00 0.03 0.03 65 1021.4
20180122041431 23 285 0.0 3.0 0.00 0.03 0.03 65 1021.4
20180122040418 22 285 0.0 0.0 0.00 0.03 0.03 67 1021.0
20180122035344 22 284 0.0 0.0 0.00 0.03 0.03 65 1020.6
20180122034430 23 284 0.0 0.0 0.00 0.03 0.03 65 1020.6
20180122033411 23 313 0.0 2.0 0.00 0.03 0.03 66 1020.7
20180122031413 22 312 0.0 1.0 0.00 0.03 0.03 67 1020.8
20180122030412 23 312 0.0 3.0 0.00 0.03 0.03 64 1020.6
20180122025419 24 267 0.0 0.0 0.00 0.03 0.03 62 1020.4
20180122024400 24 267 0.0 0.0 0.00 0.03 0.03 63 1020.4
20180122023418 24 267 0.0 3.0 0.00 0.03 0.03 63 1020.3
20180122022338 24 280 0.0 0.0 0.00 0.03 0.03 62 1020.3
20180122021423 24 278 0.0 0.0 0.00 0.03 0.03 62 1020.3
20180122015416 24 278 0.0 0.0 0.00 0.03 0.03 64 1020.2
20180122014418 24 278 0.0 0.0 0.00 0.03 0.03 62 1020.2
20180122013406 24 278 0.0 6.0 0.00 0.03 0.03 61 1020.0
20180122012341 25 256 2.0 3.0 0.00 0.03 0.03 60 1019.9
20180122011428 25 285 0.0 0.0 0.00 0.03 0.03 61 1019.9
20180122010353 26 295 0.0 1.0 0.00 0.04 0.03 60 1020.0
20180122005430 26 292 0.0 1.0 0.00 0.04 0.03 59 1019.8
20180122004410 26 312 0.0 2.0 0.00 0.04 0.03 58 1019.8
20180122003401 26 309 1.0 2.0 0.00 0.04 0.03 57 1019.8
20180122002412 27 246 1.0 3.0 0.00 0.04 0.03 56 1019.3
20180122001429 27 332 0.0 2.0 0.00 0.04 0.03 55 1019.3
20180122000357 27 315 0.0 6.0 0.00 0.04 0.03 54 1019.4
20180121235413 27 227 5.0 6.0 0.00 0.04 0.03 54 1019.2
20180121234419 27 250 1.0 7.0 0.00 0.04 0.03 53 1019.2
20180121233342 28 320 5.0 6.0 0.00 0.04 0.03 49 1018.5
20180121232428 29 282 0.0 0.0 0.00 0.04 0.03 50 1018.5
20180121231356 29 360 2.0 3.0 0.00 0.04 0.03 49 1018.5
20180121230353 29 320 0.0 0.0 0.00 0.04 0.03 49 1018.0
20180121225421 29 261 3.0 6.0 0.00 0.04 0.03 51 1018.8
20180121224356 30 254 5.0 7.0 0.00 0.04 0.03 46 1018.8
20180121223415 30 260 4.0 9.0 0.00 0.04 0.03 48 1018.5
20180121222350 29 299 0.0 2.0 0.00 0.04 0.03 50 1017.8
20180121221411 29 247 2.0 14.0 0.00 0.04 0.03 52 1017.8
20180121220416 29 254 0.0 6.0 0.00 0.04 0.03 50 1018.3
20180121215402 28 316 1.0 8.0 0.00 0.04 0.03 50 1018.3
20180121214352 28 263 0.0 13.0 0.00 0.04 0.03 51 1018.3
20180121213351 28 254 6.0 10.0 0.00 0.04 0.03 52 1018.0
20180121212404 28 319 1.0 7.0 0.00 0.04 0.03 52 1017.7
20180121211401 27 296 0.0 10.0 0.00 0.04 0.03 54 1017.7
20180121210346 27 306 8.0 13.0 0.00 0.04 0.03 54 1017.8
20180121205429 27 250 2.0 7.0 0.00 0.04 0.03 55 1017.6
20180121204408 26 216 1.0 6.0 0.00 0.04 0.03 58 1017.6
20180121203425 26 222 3.0 6.0 0.00 0.04 0.03 59 1017.4
20180121202411 26 250 0.0 8.0 0.00 0.04 0.03 60 1017.1
20180121201420 26 243 0.0 7.0 0.00 0.04 0.03 57 1017.1
20180121200422 26 257 0.0 7.0 0.00 0.04 0.03 59 1017.3
20180121195410 26 272 0.0 3.0 0.00 0.04 0.03 58 1017.4
20180121194416 26 320 3.0 7.0 0.00 0.04 0.03 57 1017.4
20180121193408 26 260 3.0 7.0 0.01 0.04 0.03 56 1017.7
20180121192419 27 248 0.0 4.0 0.01 0.04 0.03 57 1017.7
20180121191428 26 271 2.0 3.0 0.01 0.04 0.03 57 1017.7
20180121190357 26 248 2.0 6.0 0.02 0.04 0.03 57 1017.9
20180121185419 26 232 0.0 11.0 0.02 0.04 0.03 59 1017.3
20180121184422 26 254 0.0 6.0 0.03 0.04 0.03 59 1017.3
20180121183356 26 258 3.0 6.0 0.02 0.03 0.02 60 1017.3
20180121182406 26 323 2.0 5.0 0.02 0.03 0.02 55 1017.9
20180121181354 26 226 0.0 7.0 0.02 0.03 0.02 59 1017.9
20180121180406 26 289 0.0 1.0 0.01 0.02 0.01 58 1017.2
20180121175401 25 263 3.0 10.0 0.01 0.02 0.01 58 1017.2
20180121174424 25 342 1.0 8.0 0.00 0.01 0.00 59 1017.2
20180121173416 24 301 1.0 5.0 0.00 0.01 0.00 56 1017.9
20180121172405 24 258 0.0 6.0 0.00 0.01 0.00 63 1017.0
20180121171408 23 234 0.0 6.0 0.00 0.01 0.00 62 1017.0
20180121170428 24 323 0.0 7.0 0.00 0.01 0.00 58 1016.6
20180121165411 23 330 2.0 5.0 0.00 0.01 0.00 57 1017.0
20180121164431 23 330 0.0 2.0 0.00 0.01 0.00 60 1017.0
20180121163431 23 329 0.0 1.0 0.00 0.01 0.00 65 1016.7
20180121162348 22 323 3.0 7.0 0.00 0.01 0.00 64 1016.3
20180121161431 22 330 1.0 9.0 0.00 0.01 0.00 64 1016.3
20180121160342 21 360 3.0 7.0 0.00 0.01 0.00 70 1015.9
20180121155429 20 326 1.0 5.0 0.00 0.01 0.00 72 1015.5
20180121154414 20 291 0.0 7.0 0.00 0.01 0.00 73 1015.5
20180121153405 19 360 3.0 7.0 0.00 0.01 0.00 73 1015.0
20180121152417 19 328 2.0 6.0 0.00 0.01 0.00 75 1014.6
20180121151400 18 329 3.0 13.0 0.00 0.01 0.00 75 1014.6
20180121150417 19 335 2.0 6.0 0.00 0.01 0.00 76 1014.6
20180121145406 19 315 5.0 6.0 0.00 0.01 0.00 76 1014.3
20180121144421 18 302 8.0 10.0 0.00 0.01 0.00 77 1014.3
20180121143351 18 332 6.0 14.0 0.00 0.01 0.00 76 1014.1
20180121142408 18 330 5.0 8.0 0.00 0.01 0.00 77 1013.6
20180121141403 18 335 3.0 10.0 0.00 0.01 0.00 76 1013.6
20180121140411 18 318 2.0 8.0 0.00 0.01 0.00 77 1013.7
20180121135432 18 323 5.0 9.0 0.00 0.01 0.00 77 1013.8
20180121134402 19 325 4.0 9.0 0.00 0.01 0.00 77 1013.8
20180121133353 19 332 1.0 7.0 0.00 0.01 0.00 78 1013.6
20180121132431 19 330 2.0 7.0 0.00 0.01 0.00 78 1013.5
20180121130355 19 306 2.0 6.0 0.00 0.01 0.00 79 1013.4
20180121125408 19 333 5.0 7.0 0.00 0.01 0.00 80 1013.2
20180121124354 19 308 2.0 6.0 0.00 0.01 0.00 79 1013.2
20180121123359 19 318 0.0 8.0 0.00 0.01 0.00 80 1013.0
20180121122412 19 342 2.0 7.0 0.00 0.01 0.00 80 1012.8
20180121121410 19 342 5.0 8.0 0.00 0.01 0.00 80 1012.8
20180121120406 19 335 2.0 6.0 0.00 0.01 0.00 80 1012.2
20180121115406 19 318 2.0 6.0 0.00 0.01 0.00 81 1012.2
20180121114421 19 313 3.0 5.0 0.00 0.01 0.00 81 1012.2
20180121113415 19 329 0.0 3.0 0.00 0.01 0.00 82 1012.1
20180121112403 19 315 2.0 14.0 0.00 0.01 0.00 82 1012.1
20180121111427 19 315 0.0 11.0 0.00 0.01 0.00 82 1012.1
20180121110334 19 322 0.0 6.0 0.00 0.01 0.00 82 1012.0
20180121105358 19 277 2.0 5.0 0.00 0.01 0.00 82 1012.0
20180121104351 20 312 2.0 2.0 0.00 0.01 0.00 83 1012.0
20180121103408 20 329 2.0 6.0 0.00 0.01 0.00 83 1011.9